Weather History for KAQP - February, 2013

Change the Weather History Date:

Tuesday, February 19, 2013

  Actual Average Record
Temperature  
Mean Temperature -5 °F -  
Max Temperature 1 °F 26 °F 82 °F (1997)
Min Temperature -11 °F 10 °F -16 °F (2015)
Degree Days  
Heating Degree Days 70    
Moisture  
Dew Point -11 °F    
Average Humidity 74    
Maximum Humidity 85    
Minimum Humidity 65    
Precipitation  
Precipitation 0.00 in - - ()
Sea Level Pressure  
Sea Level Pressure 30.27 in    
Wind  
Wind Speed 23 mph (NW)    
Max Wind Speed 30 mph    
Max Gust Speed 37 mph    
Visibility 5 miles    
Events Snow    
Averages and records for this station are not official NWS values.
T = Trace of Precipitation, MM = Missing Value Source: NWS Daily Summary

Daily Weather History Graph

Daily Weather History Graph

Search for Another Location

Airport or City:

Trip Planner

Search our weather history database for the weather conditions in past years. The results will help you decide how hot, cold, wet, or windy it might be!

Date:

Astronomy

Feb. 19, 2013 Rise Set
Actual Time 7:18 AM CST 5:57 PM CST
Civil Twilight 6:48 AM CST 6:27 PM CST
Nautical Twilight 6:14 AM CST 7:02 PM CST
Astronomical Twilight 5:40 AM CST 7:36 PM CST
Moon 12:21 PM CST (2/19) 2:59 AM CST (2/19)
Length of Visible Light 11h 39m
Length of Day
10h 39m
Waxing Gibbous, 67% of the Moon is Illuminated
Feb 19
Waxing Gibbous
Feb 25
Full
Mar 4
Last Quarter
Mar 11
New
Mar 19
First Quarter

Hourly Weather History & Observations

Time (CST) Temp. Windchill Dew Point Humidity Pressure Visibility Wind Dir Wind Speed Gust Speed Precip Events Conditions
12:14 AM -0.4 °F -24.3 °F -5.8 °F 78% 30.05 in 3.0 mi NNW 24.2 mph 34.5 mph N/A   Haze
12:34 AM -0.4 °F -24.3 °F -5.8 °F 78% 30.06 in 3.0 mi NNW 24.2 mph 31.1 mph N/A   Haze
12:53 AM -0.4 °F -23.3 °F -5.8 °F 78% 30.07 in 4.0 mi NW 21.9 mph 29.9 mph N/A   Haze
1:13 AM -0.4 °F -24.7 °F -5.8 °F 78% 30.07 in 3.0 mi NW 25.3 mph 31.1 mph N/A   Haze
1:33 AM -0.4 °F -24.3 °F -4.0 °F 85% 30.07 in 4.0 mi NW 24.2 mph - N/A   Overcast
1:54 AM 1.4 °F -21.4 °F -4.0 °F 78% 30.07 in 2.5 mi NNW 23.0 mph 31.1 mph N/A   Haze
2:13 AM 1.4 °F -22.7 °F -4.0 °F 78% 30.08 in 1.8 mi NNW 26.5 mph 34.5 mph N/A Snow Light Snow
2:34 AM 1.4 °F -22.3 °F -4.0 °F 78% 30.09 in 1.2 mi NNW 25.3 mph 33.4 mph N/A Snow Light Snow
2:53 AM -0.4 °F -24.7 °F -5.8 °F 78% 30.09 in 1.8 mi NNW 25.3 mph 34.5 mph N/A Snow Light Snow
3:14 AM -0.4 °F -24.3 °F -5.8 °F 78% 30.10 in 1.8 mi NNW 24.2 mph 36.8 mph N/A Snow Light Snow
3:33 AM -0.4 °F -24.7 °F -5.8 °F 78% 30.10 in 1.8 mi NW 25.3 mph 36.8 mph N/A Snow Light Snow
3:53 AM -0.4 °F -26.4 °F -5.8 °F 78% 30.11 in 2.0 mi NW 29.9 mph 34.5 mph N/A   Haze
4:14 AM -0.4 °F -26.0 °F -5.8 °F 78% 30.12 in 2.5 mi NW 28.8 mph 33.4 mph N/A   Haze
4:33 AM -2.2 °F -28.4 °F -7.6 °F 78% 30.13 in 2.5 mi NW 28.8 mph 36.8 mph N/A   Haze
4:54 AM -2.2 °F -28.4 °F -7.6 °F 78% 30.13 in 2.0 mi NW 28.8 mph 32.2 mph N/A   Haze
5:14 AM -4.0 °F -29.6 °F -9.4 °F 78% 30.15 in 1.2 mi NNW 25.3 mph 36.8 mph N/A Snow Light Snow
5:33 AM -5.8 °F -32.0 °F -9.4 °F 84% 30.16 in 1.8 mi NW 25.3 mph 35.7 mph N/A   Haze
5:53 AM -5.8 °F -32.0 °F -11.2 °F 77% 30.17 in 2.0 mi NW 25.3 mph 34.5 mph N/A   Haze
6:13 AM -5.8 °F -32.4 °F -11.2 °F 77% 30.18 in 3.0 mi NW 26.5 mph 31.1 mph N/A   Haze
6:33 AM -5.8 °F -32.4 °F -11.2 °F 77% 30.18 in 3.0 mi NW 26.5 mph 33.4 mph N/A   Haze
6:53 AM -5.8 °F -32.9 °F -11.2 °F 77% 30.19 in 2.0 mi NW 27.6 mph 32.2 mph N/A   Haze
7:14 AM -5.8 °F -31.5 °F -11.2 °F 77% 30.20 in 2.0 mi NNW 24.2 mph 35.7 mph N/A Snow Light Snow
7:33 AM -5.8 °F -32.4 °F -11.2 °F 77% 30.22 in 1.5 mi NW 26.5 mph 33.4 mph N/A   Haze
7:53 AM -7.6 °F -36.1 °F -11.2 °F 84% 30.23 in 1.2 mi NW 29.9 mph 34.5 mph N/A   Haze
8:13 AM -7.6 °F -34.8 °F -13.0 °F 77% 30.24 in 1.5 mi NW 26.5 mph 33.4 mph N/A   Haze
8:33 AM -7.6 °F -34.4 °F -14.8 °F 71% 30.25 in 2.0 mi NW 25.3 mph 29.9 mph N/A   Haze
8:53 AM -7.6 °F -33.4 °F -14.8 °F 71% 30.25 in 1.8 mi NW 23.0 mph 33.4 mph N/A   Haze
9:13 AM -7.6 °F -34.4 °F -14.8 °F 71% 30.26 in 1.5 mi NNW 25.3 mph 29.9 mph N/A   Haze
9:34 AM -7.6 °F -33.9 °F -14.8 °F 71% 30.27 in 1.5 mi NNW 24.2 mph 33.4 mph N/A   Haze
9:53 AM -7.6 °F -32.9 °F -14.8 °F 71% 30.27 in 1.5 mi NNW 21.9 mph 33.4 mph N/A   Haze
10:13 AM -5.8 °F -32.0 °F -14.8 °F 65% 30.28 in 1.2 mi NW 25.3 mph 34.5 mph N/A   Haze
10:33 AM -5.8 °F -32.9 °F -13.0 °F 71% 30.29 in 1.5 mi NW 27.6 mph 33.4 mph N/A   Haze
11:14 AM -5.8 °F -32.4 °F -13.0 °F 71% 30.30 in 2.0 mi NW 26.5 mph 29.9 mph N/A   Haze
11:33 AM -5.8 °F -32.0 °F -13.0 °F 71% 30.31 in 1.2 mi NW 25.3 mph 31.1 mph N/A   Haze
11:54 AM -5.8 °F -32.0 °F -13.0 °F 71% 30.31 in 2.0 mi NW 25.3 mph 32.2 mph N/A   Haze
12:33 PM -4.0 °F -29.1 °F -11.2 °F 71% 30.31 in 1.8 mi NW 24.2 mph 28.8 mph N/A   Haze
12:53 PM -4.0 °F -28.6 °F -11.2 °F 71% 30.31 in 1.8 mi NW 23.0 mph - N/A   Haze
1:13 PM -4.0 °F -29.1 °F -11.2 °F 71% 30.31 in 1.8 mi NNW 24.2 mph 28.8 mph N/A   Haze
1:33 PM -2.2 °F -26.7 °F -11.2 °F 66% 30.31 in 2.0 mi NW 24.2 mph 31.1 mph N/A   Haze
1:53 PM -4.0 °F -29.1 °F -11.2 °F 71% 30.31 in 2.5 mi NW 24.2 mph - N/A   Haze
2:14 PM -2.2 °F -26.7 °F -11.2 °F 66% 30.31 in 3.0 mi NW 24.2 mph - N/A   Haze
2:33 PM -2.2 °F -24.7 °F -11.2 °F 66% 30.31 in 4.0 mi NW 19.6 mph - N/A   Haze
2:53 PM -2.2 °F -26.7 °F -9.4 °F 71% 30.32 in 3.0 mi NW 24.2 mph - N/A   Haze
3:13 PM -2.2 °F -25.2 °F -9.4 °F 71% 30.33 in 4.0 mi NW 20.7 mph 26.5 mph N/A   Haze
3:33 PM -2.2 °F -26.2 °F -9.4 °F 71% 30.34 in 3.0 mi NW 23.0 mph 27.6 mph N/A   Haze
3:54 PM -2.2 °F -25.2 °F -9.4 °F 71% 30.34 in 7.0 mi NW 20.7 mph 25.3 mph N/A   Overcast
4:13 PM -2.2 °F -25.7 °F -9.4 °F 71% 30.34 in 5.0 mi NW 21.9 mph 26.5 mph N/A   Haze
4:33 PM -2.2 °F -25.2 °F -9.4 °F 71% 30.35 in 7.0 mi NW 20.7 mph - N/A   Overcast
4:54 PM -2.2 °F -19.9 °F -9.4 °F 71% 30.37 in 10.0 mi NNW 11.5 mph 15.0 mph N/A   Overcast
5:13 PM -4.0 °F -25.2 °F -11.2 °F 71% 30.37 in 10.0 mi NW 16.1 mph - N/A   Overcast
5:33 PM -5.8 °F -27.5 °F -11.2 °F 77% 30.37 in 10.0 mi NW 16.1 mph - N/A   Mostly Cloudy
6:33 PM -5.8 °F -28.2 °F -13.0 °F 71% 30.36 in 10.0 mi NNW 17.3 mph 21.9 mph N/A   Scattered Clouds
6:53 PM -5.8 °F -24.4 °F -13.0 °F 71% 30.38 in 10.0 mi NNW 11.5 mph 20.7 mph N/A   Overcast
7:13 PM -7.6 °F -26.6 °F -13.0 °F 77% 30.38 in 10.0 mi NW 11.5 mph - N/A   Overcast
7:53 PM -7.6 °F -23.4 °F -13.0 °F 77% 30.39 in 10.0 mi NNW 8.1 mph - N/A   Overcast
8:13 PM -7.6 °F -27.5 °F -14.8 °F 71% 30.39 in 10.0 mi NNW 12.7 mph - N/A   Overcast
8:33 PM -7.6 °F -30.5 °F -14.8 °F 71% 30.39 in 10.0 mi NNW 17.3 mph - N/A   Overcast
8:54 PM -9.4 °F -29.8 °F -14.8 °F 77% 30.40 in 10.0 mi NNW 12.7 mph - N/A   Scattered Clouds
9:13 PM -9.4 °F -27.9 °F -14.8 °F 77% 30.41 in 10.0 mi NNW 10.4 mph - N/A   Clear
9:34 PM -9.4 °F -26.8 °F -14.8 °F 77% 30.41 in 10.0 mi NNW 9.2 mph - N/A   Clear
9:53 PM -9.4 °F -29.8 °F -14.8 °F 77% 30.42 in 10.0 mi NNW 12.7 mph - N/A   Clear
10:13 PM -9.4 °F -27.9 °F -16.6 °F 71% 30.43 in 10.0 mi NW 10.4 mph - N/A   Clear
10:33 PM -9.4 °F -25.6 °F -16.6 °F 71% 30.43 in 10.0 mi NW 8.1 mph - N/A   Clear
10:53 PM -9.4 °F -27.9 °F -16.6 °F 71% 30.43 in 10.0 mi NNW 10.4 mph - N/A   Clear
11:13 PM -11.2 °F -27.8 °F -16.6 °F 77% 30.44 in 10.0 mi NW 8.1 mph - N/A   Clear
11:33 PM -11.2 °F -30.1 °F -16.6 °F 77% 30.44 in 10.0 mi NW 10.4 mph - N/A   Clear
11:53 PM -11.2 °F -24.8 °F -16.6 °F 77% 30.44 in 10.0 mi NNW 5.8 mph - N/A   Clear